Year,Month,Day,Hour,Minute,Value (Times are PST for temperature in C)
2016,06,16,00,00,5.40
2016,06,16,00,01,5.40
2016,06,16,00,02,5.40
2016,06,16,00,03,5.40
2016,06,16,00,04,5.40
2016,06,16,00,05,5.30
2016,06,16,00,06,5.30
2016,06,16,00,07,5.30
2016,06,16,00,08,5.30
2016,06,16,00,09,5.30
2016,06,16,00,10,5.30
2016,06,16,00,11,5.30
2016,06,16,00,12,5.30
2016,06,16,00,13,5.30
2016,06,16,00,14,5.20
2016,06,16,00,15,5.20
2016,06,16,00,16,5.20
2016,06,16,00,17,5.20
2016,06,16,00,18,5.20
2016,06,16,00,19,5.20
2016,06,16,00,20,5.20
2016,06,16,00,21,5.20
2016,06,16,00,22,5.10
2016,06,16,00,23,5.10
2016,06,16,00,24,5.10
2016,06,16,00,25,5.10
2016,06,16,00,26,5.10
2016,06,16,00,27,5.10
2016,06,16,00,28,5.10
2016,06,16,00,29,5.10
2016,06,16,00,30,5.10
2016,06,16,00,31,5.10
2016,06,16,00,32,5.00
2016,06,16,00,33,5.00
2016,06,16,00,34,5.00
2016,06,16,00,35,5.00
2016,06,16,00,36,5.00
2016,06,16,00,37,5.00
2016,06,16,00,38,5.00
2016,06,16,00,39,5.00
2016,06,16,00,40,4.90
2016,06,16,00,41,4.90
2016,06,16,00,42,4.90
2016,06,16,00,43,4.90
2016,06,16,00,44,4.90
2016,06,16,00,45,4.90
2016,06,16,00,46,4.90
2016,06,16,00,47,4.90
2016,06,16,00,48,4.90
2016,06,16,00,49,4.90
2016,06,16,00,50,4.90
2016,06,16,00,51,4.90
2016,06,16,00,52,4.90
2016,06,16,00,53,4.80
2016,06,16,00,54,4.80
2016,06,16,00,55,4.80
2016,06,16,00,56,4.80
2016,06,16,00,57,4.80
2016,06,16,00,58,4.80
2016,06,16,00,59,4.80
2016,06,16,01,00,4.80
2016,06,16,01,01,4.80
2016,06,16,01,02,4.80
2016,06,16,01,03,4.80
2016,06,16,01,04,4.80
2016,06,16,01,05,4.80
2016,06,16,01,06,4.80
2016,06,16,01,07,4.70
2016,06,16,01,08,4.70
2016,06,16,01,09,4.70
2016,06,16,01,10,4.70
2016,06,16,01,11,4.70
2016,06,16,01,12,4.70
2016,06,16,01,13,4.70
2016,06,16,01,14,4.70
2016,06,16,01,15,4.70
2016,06,16,01,16,4.70
2016,06,16,01,17,4.70
2016,06,16,01,18,4.70
2016,06,16,01,19,4.70
2016,06,16,01,20,4.70
2016,06,16,01,21,4.70
2016,06,16,01,22,4.70
2016,06,16,01,23,4.70
2016,06,16,01,24,4.70
2016,06,16,01,25,4.70
2016,06,16,01,26,4.70
2016,06,16,01,27,4.60
2016,06,16,01,28,4.60
2016,06,16,01,29,4.60
2016,06,16,01,30,4.60
2016,06,16,01,31,4.60
2016,06,16,01,32,4.60
2016,06,16,01,33,4.50
2016,06,16,01,34,4.50
2016,06,16,01,35,4.50
2016,06,16,01,36,4.50
2016,06,16,01,37,4.50
2016,06,16,01,38,4.50
2016,06,16,01,39,4.50
2016,06,16,01,40,4.40
2016,06,16,01,41,4.40
2016,06,16,01,42,4.40
2016,06,16,01,43,4.40
2016,06,16,01,44,4.40
2016,06,16,01,45,4.40
2016,06,16,01,46,4.40
2016,06,16,01,47,4.40
2016,06,16,01,48,4.40
2016,06,16,01,49,4.40
2016,06,16,01,50,4.40
2016,06,16,01,51,4.40
2016,06,16,01,52,4.40
2016,06,16,01,53,4.40
2016,06,16,01,54,4.40
2016,06,16,01,55,4.40
2016,06,16,01,56,4.40
2016,06,16,01,57,4.40
2016,06,16,01,58,4.40
2016,06,16,01,59,4.30
2016,06,16,02,00,4.30
2016,06,16,02,01,4.30
2016,06,16,02,02,4.30
2016,06,16,02,03,4.30
2016,06,16,02,04,4.30
2016,06,16,02,05,4.30
2016,06,16,02,06,4.30
2016,06,16,02,07,4.30
2016,06,16,02,08,4.30
2016,06,16,02,09,4.30
2016,06,16,02,10,4.30
2016,06,16,02,11,4.30
2016,06,16,02,12,4.30
2016,06,16,02,13,4.30
2016,06,16,02,14,4.30
2016,06,16,02,15,4.30
2016,06,16,02,16,4.20
2016,06,16,02,17,4.20
2016,06,16,02,18,4.20
2016,06,16,02,19,4.20
2016,06,16,02,20,4.20
2016,06,16,02,21,4.20
2016,06,16,02,22,4.20
2016,06,16,02,23,4.20
2016,06,16,02,24,4.20
2016,06,16,02,25,4.20
2016,06,16,02,26,4.20
2016,06,16,02,27,4.20
2016,06,16,02,28,4.20
2016,06,16,02,29,4.20
2016,06,16,02,30,4.20
2016,06,16,02,31,4.20
2016,06,16,02,32,4.20
2016,06,16,02,33,4.10
2016,06,16,02,34,4.10
2016,06,16,02,35,4.10
2016,06,16,02,36,4.10
2016,06,16,02,37,4.10
2016,06,16,02,38,4.10
2016,06,16,02,39,4.10
2016,06,16,02,40,4.10
2016,06,16,02,41,4.10
2016,06,16,02,42,4.10
2016,06,16,02,43,4.10
2016,06,16,02,44,4.10
2016,06,16,02,45,4.10
2016,06,16,02,46,4.10
2016,06,16,02,47,4.10
2016,06,16,02,48,4.00
2016,06,16,02,49,4.00
2016,06,16,02,50,4.00
2016,06,16,02,51,4.00
2016,06,16,02,52,4.00
2016,06,16,02,53,4.00
2016,06,16,02,54,4.00
2016,06,16,02,55,4.00
2016,06,16,02,56,4.00
2016,06,16,02,57,4.00
2016,06,16,02,58,4.00
2016,06,16,02,59,4.00
2016,06,16,03,00,4.00
2016,06,16,03,01,4.00
2016,06,16,03,02,4.00
2016,06,16,03,03,4.00
2016,06,16,03,04,4.00
2016,06,16,03,05,3.90
2016,06,16,03,06,3.90
2016,06,16,03,07,3.90
2016,06,16,03,08,3.90
2016,06,16,03,09,3.90
2016,06,16,03,10,3.90
2016,06,16,03,11,3.90
2016,06,16,03,12,3.90
2016,06,16,03,13,3.90
2016,06,16,03,14,3.90
2016,06,16,03,15,3.90
2016,06,16,03,16,3.90
2016,06,16,03,17,3.80
2016,06,16,03,18,3.80
2016,06,16,03,19,3.80
2016,06,16,03,20,3.80
2016,06,16,03,21,3.80
2016,06,16,03,22,3.70
2016,06,16,03,23,3.70
2016,06,16,03,24,3.70
2016,06,16,03,25,3.70
2016,06,16,03,26,3.70
2016,06,16,03,27,3.60
2016,06,16,03,28,3.60
2016,06,16,03,29,3.60
2016,06,16,03,30,3.60
2016,06,16,03,31,3.60
2016,06,16,03,32,3.60
2016,06,16,03,33,3.60
2016,06,16,03,34,3.60
2016,06,16,03,35,3.60
2016,06,16,03,36,3.60
2016,06,16,03,37,3.60
2016,06,16,03,38,3.60
2016,06,16,03,39,3.60
2016,06,16,03,40,3.60
2016,06,16,03,41,3.60
2016,06,16,03,42,3.60
2016,06,16,03,43,3.60
2016,06,16,03,44,3.60
2016,06,16,03,45,3.60
2016,06,16,03,46,3.60
2016,06,16,03,47,3.60
2016,06,16,03,48,3.60
2016,06,16,03,49,3.60
2016,06,16,03,50,3.60
2016,06,16,03,51,3.60
2016,06,16,03,52,3.60
2016,06,16,03,53,3.60
2016,06,16,03,54,3.60
2016,06,16,03,55,3.60
2016,06,16,03,56,3.60
2016,06,16,03,57,3.60
2016,06,16,03,58,3.60
2016,06,16,03,59,3.60
2016,06,16,04,00,3.60
2016,06,16,04,01,3.50
2016,06,16,04,02,3.50
2016,06,16,04,03,3.50
2016,06,16,04,04,3.50
2016,06,16,04,05,3.50
2016,06,16,04,06,3.50
2016,06,16,04,07,3.50
2016,06,16,04,08,3.50
2016,06,16,04,09,3.50
2016,06,16,04,10,3.50
2016,06,16,04,11,3.50
2016,06,16,04,12,3.40
2016,06,16,04,13,3.40
2016,06,16,04,14,3.40
2016,06,16,04,15,3.40
2016,06,16,04,16,3.40
2016,06,16,04,17,3.40
2016,06,16,04,18,3.40
2016,06,16,04,19,3.40
2016,06,16,04,20,3.40
2016,06,16,04,21,3.40
2016,06,16,04,22,3.40
2016,06,16,04,23,3.30
2016,06,16,04,24,3.30
2016,06,16,04,25,3.30
2016,06,16,04,26,3.30
2016,06,16,04,27,3.30
2016,06,16,04,28,3.30
2016,06,16,04,29,3.30
2016,06,16,04,30,3.30
2016,06,16,04,31,3.30
2016,06,16,04,32,3.30
2016,06,16,04,33,3.30
2016,06,16,04,34,3.30
2016,06,16,04,35,3.30
2016,06,16,04,36,3.30
2016,06,16,04,37,3.30
2016,06,16,04,38,3.30
2016,06,16,04,39,3.30
2016,06,16,04,40,3.30
2016,06,16,04,41,3.30
2016,06,16,04,42,3.30
2016,06,16,04,43,3.30
2016,06,16,04,44,3.30
2016,06,16,04,45,3.30
2016,06,16,04,46,3.30
2016,06,16,04,47,3.30
2016,06,16,04,48,3.30
2016,06,16,04,49,3.20
2016,06,16,04,50,3.20
2016,06,16,04,51,3.20
2016,06,16,04,52,3.20
2016,06,16,04,53,3.20
2016,06,16,04,54,3.20
2016,06,16,04,55,3.20
2016,06,16,04,56,3.20
2016,06,16,04,57,3.20
2016,06,16,04,58,3.20
2016,06,16,04,59,3.20
2016,06,16,05,00,3.30
2016,06,16,05,01,3.20
2016,06,16,05,02,3.20
2016,06,16,05,03,3.30
2016,06,16,05,04,3.30
2016,06,16,05,05,3.30
2016,06,16,05,06,3.20
2016,06,16,05,07,3.20
2016,06,16,05,08,3.20
2016,06,16,05,09,3.20
2016,06,16,05,10,3.20
2016,06,16,05,11,3.20
2016,06,16,05,12,3.20
2016,06,16,05,13,3.20
2016,06,16,05,14,3.20
2016,06,16,05,15,3.20
2016,06,16,05,16,3.20
2016,06,16,05,17,3.20
2016,06,16,05,18,3.20
2016,06,16,05,19,3.20
2016,06,16,05,20,3.20
2016,06,16,05,21,3.20
2016,06,16,05,22,3.20
2016,06,16,05,23,3.20
2016,06,16,05,24,3.20
2016,06,16,05,25,3.20
2016,06,16,05,26,3.20
2016,06,16,05,27,3.20
2016,06,16,05,28,3.20
2016,06,16,05,29,3.20
2016,06,16,05,30,3.20
2016,06,16,05,31,3.20
2016,06,16,05,32,3.20
2016,06,16,05,33,3.20
2016,06,16,05,34,3.20
2016,06,16,05,35,3.30
2016,06,16,05,36,3.30
2016,06,16,05,37,3.30
2016,06,16,05,38,3.30
2016,06,16,05,39,3.30
2016,06,16,05,40,3.30
2016,06,16,05,41,3.30
2016,06,16,05,42,3.40
2016,06,16,05,43,3.40
2016,06,16,05,44,3.40
2016,06,16,05,45,3.50
2016,06,16,05,46,3.50
2016,06,16,05,47,3.50
2016,06,16,05,48,3.60
2016,06,16,05,49,3.60
2016,06,16,05,50,3.60
2016,06,16,05,51,3.70
2016,06,16,05,52,3.70
2016,06,16,05,53,3.70
2016,06,16,05,54,3.70
2016,06,16,05,55,3.70
2016,06,16,05,56,3.70
2016,06,16,05,57,3.80
2016,06,16,05,58,3.80
2016,06,16,05,59,3.80
2016,06,16,06,00,3.80
2016,06,16,06,01,3.80
2016,06,16,06,02,3.90
2016,06,16,06,03,3.90
2016,06,16,06,04,3.90
2016,06,16,06,05,3.90
2016,06,16,06,06,3.90
2016,06,16,06,07,3.90
2016,06,16,06,08,4.00
2016,06,16,06,09,4.00
2016,06,16,06,10,4.00
2016,06,16,06,11,4.00
2016,06,16,06,12,4.10
2016,06,16,06,13,4.10
2016,06,16,06,14,4.10
2016,06,16,06,15,4.10
2016,06,16,06,16,4.10
2016,06,16,06,17,4.10
2016,06,16,06,18,4.20
2016,06,16,06,19,4.20
2016,06,16,06,20,4.20
2016,06,16,06,21,4.20
2016,06,16,06,22,4.20
2016,06,16,06,23,4.30
2016,06,16,06,24,4.30
2016,06,16,06,25,4.30
2016,06,16,06,26,4.30
2016,06,16,06,27,4.30
2016,06,16,06,28,4.40
2016,06,16,06,29,4.40
2016,06,16,06,30,4.40
2016,06,16,06,31,4.50
2016,06,16,06,32,4.50
2016,06,16,06,33,4.60
2016,06,16,06,34,4.60
2016,06,16,06,35,4.60
2016,06,16,06,36,4.60
2016,06,16,06,37,4.70
2016,06,16,06,38,4.70
2016,06,16,06,39,4.80
2016,06,16,06,40,4.80
2016,06,16,06,41,4.80
2016,06,16,06,42,4.90
2016,06,16,06,43,4.90
2016,06,16,06,44,4.90
2016,06,16,06,45,5.00
2016,06,16,06,46,5.00
2016,06,16,06,47,5.10
2016,06,16,06,48,5.10
2016,06,16,06,49,5.10
2016,06,16,06,50,5.10
2016,06,16,06,51,5.20
2016,06,16,06,52,5.20
2016,06,16,06,53,5.30
2016,06,16,06,54,5.30
2016,06,16,06,55,5.40
2016,06,16,06,56,5.40
2016,06,16,06,57,5.50
2016,06,16,06,58,5.50
2016,06,16,06,59,5.60
2016,06,16,07,00,5.60
2016,06,16,07,01,5.70
2016,06,16,07,02,5.80
2016,06,16,07,03,5.80
2016,06,16,07,04,5.90
2016,06,16,07,05,6.00
2016,06,16,07,06,6.10
2016,06,16,07,07,6.20
2016,06,16,07,08,6.20
2016,06,16,07,09,6.30
2016,06,16,07,10,6.40
2016,06,16,07,11,6.50
2016,06,16,07,12,6.60
2016,06,16,07,13,6.60
2016,06,16,07,14,6.70
2016,06,16,07,15,6.80
2016,06,16,07,16,6.80
2016,06,16,07,17,6.90
2016,06,16,07,18,7.00
2016,06,16,07,19,7.20
2016,06,16,07,20,7.20
2016,06,16,07,21,7.30
2016,06,16,07,22,7.40
2016,06,16,07,23,7.50
2016,06,16,07,24,7.60
2016,06,16,07,25,7.60
2016,06,16,07,26,7.70
2016,06,16,07,27,7.80
2016,06,16,07,28,7.80
2016,06,16,07,29,7.80
2016,06,16,07,30,7.80
2016,06,16,07,31,7.80
2016,06,16,07,32,7.90
2016,06,16,07,33,7.90
2016,06,16,07,34,7.90
2016,06,16,07,35,7.90
2016,06,16,07,36,7.90
2016,06,16,07,37,7.90
2016,06,16,07,38,8.00
2016,06,16,07,39,8.10
2016,06,16,07,40,8.10
2016,06,16,07,41,8.20
2016,06,16,07,42,8.20
2016,06,16,07,43,8.30
2016,06,16,07,44,8.40
2016,06,16,07,45,8.50
2016,06,16,07,46,8.60
2016,06,16,07,47,8.60
2016,06,16,07,48,8.70
2016,06,16,07,49,8.80
2016,06,16,07,50,8.80
2016,06,16,07,51,8.90
2016,06,16,07,52,9.00
2016,06,16,07,53,9.00
2016,06,16,07,54,9.10
2016,06,16,07,55,9.20
2016,06,16,07,56,9.30
2016,06,16,07,57,9.40
2016,06,16,07,58,9.40
2016,06,16,07,59,9.50
2016,06,16,08,00,9.60
2016,06,16,08,01,9.70
2016,06,16,08,02,9.80
2016,06,16,08,03,10.00
2016,06,16,08,04,10.10
2016,06,16,08,05,10.20
2016,06,16,08,06,10.30
2016,06,16,08,07,10.40
2016,06,16,08,08,10.50
2016,06,16,08,09,10.60
2016,06,16,08,10,10.70
2016,06,16,08,11,10.70
2016,06,16,08,12,10.80
2016,06,16,08,13,10.90
2016,06,16,08,14,11.00
2016,06,16,08,15,11.10
2016,06,16,08,16,11.20
2016,06,16,08,17,11.30
2016,06,16,08,18,11.40
2016,06,16,08,19,11.50
2016,06,16,08,20,11.60
2016,06,16,08,21,11.70
2016,06,16,08,22,11.80
2016,06,16,08,23,11.90
2016,06,16,08,24,12.00
2016,06,16,08,25,12.10
2016,06,16,08,26,12.10
2016,06,16,08,27,12.10
2016,06,16,08,28,12.00
2016,06,16,08,29,12.00
2016,06,16,08,30,11.90
2016,06,16,08,31,11.80
2016,06,16,08,32,11.70
2016,06,16,08,33,11.70
2016,06,16,08,34,11.70
2016,06,16,08,35,11.70
2016,06,16,08,36,11.70
2016,06,16,08,37,11.70
2016,06,16,08,38,11.70
2016,06,16,08,39,11.70
2016,06,16,08,40,11.80
2016,06,16,08,41,11.80
2016,06,16,08,42,11.80
2016,06,16,08,43,11.90
2016,06,16,08,44,11.90
2016,06,16,08,45,12.00
2016,06,16,08,46,12.10
2016,06,16,08,47,12.10
2016,06,16,08,48,12.20
2016,06,16,08,49,12.20
2016,06,16,08,50,12.30
2016,06,16,08,51,12.30
2016,06,16,08,52,12.30
2016,06,16,08,53,12.30
2016,06,16,08,54,12.30
2016,06,16,08,55,12.40
2016,06,16,08,56,12.40
2016,06,16,08,57,12.40
2016,06,16,08,58,12.40
2016,06,16,08,59,12.50
2016,06,16,09,00,12.60
2016,06,16,09,01,12.60
2016,06,16,09,02,12.60
2016,06,16,09,03,12.70
2016,06,16,09,04,12.70
2016,06,16,09,05,12.70
2016,06,16,09,06,12.70
2016,06,16,09,07,12.60
2016,06,16,09,08,12.60
2016,06,16,09,09,12.50
2016,06,16,09,10,12.50
2016,06,16,09,11,12.50
2016,06,16,09,12,12.50
2016,06,16,09,13,12.40
2016,06,16,09,14,12.40
2016,06,16,09,15,12.40
2016,06,16,09,16,12.40
2016,06,16,09,17,12.40
2016,06,16,09,18,12.40
2016,06,16,09,19,12.40
2016,06,16,09,20,12.40
2016,06,16,09,21,12.40
2016,06,16,09,22,12.40
2016,06,16,09,23,12.50
2016,06,16,09,24,12.50
2016,06,16,09,25,12.50
2016,06,16,09,26,12.60
2016,06,16,09,27,12.60
2016,06,16,09,28,12.60
2016,06,16,09,29,12.50
2016,06,16,09,30,12.50
2016,06,16,09,31,12.60
2016,06,16,09,32,12.60
2016,06,16,09,33,12.60
2016,06,16,09,34,12.60
2016,06,16,09,35,12.60
2016,06,16,09,36,12.70
2016,06,16,09,37,12.70
2016,06,16,09,38,12.80
2016,06,16,09,39,12.80
2016,06,16,09,40,12.80
2016,06,16,09,41,12.80
2016,06,16,09,42,12.80
2016,06,16,09,43,12.80
2016,06,16,09,44,12.80
2016,06,16,09,45,12.80
2016,06,16,09,46,12.80
2016,06,16,09,47,12.80
2016,06,16,09,48,12.80
2016,06,16,09,49,12.80
2016,06,16,09,50,12.90
2016,06,16,09,51,12.90
2016,06,16,09,52,12.90
2016,06,16,09,53,13.00
2016,06,16,09,54,13.00
2016,06,16,09,55,13.10
2016,06,16,09,56,13.10
2016,06,16,09,57,13.10
2016,06,16,09,58,13.20
2016,06,16,09,59,13.20
2016,06,16,10,00,13.20
2016,06,16,10,01,13.20
2016,06,16,10,02,13.20
2016,06,16,10,03,13.10
2016,06,16,10,04,13.10
2016,06,16,10,05,13.10
2016,06,16,10,06,13.00
2016,06,16,10,07,13.00
2016,06,16,10,08,13.00
2016,06,16,10,09,13.00
2016,06,16,10,10,13.00
2016,06,16,10,11,13.00
2016,06,16,10,12,13.10
2016,06,16,10,13,13.10
2016,06,16,10,14,13.10
2016,06,16,10,15,13.20
2016,06,16,10,16,13.20
2016,06,16,10,17,13.20
2016,06,16,10,18,13.20
2016,06,16,10,19,13.20
2016,06,16,10,20,13.20
2016,06,16,10,21,13.20
2016,06,16,10,22,13.20
2016,06,16,10,23,13.20
2016,06,16,10,24,13.20
2016,06,16,10,25,13.20
2016,06,16,10,26,13.10
2016,06,16,10,27,13.10
2016,06,16,10,28,13.10
2016,06,16,10,29,13.10
2016,06,16,10,30,13.10
2016,06,16,10,31,13.10
2016,06,16,10,32,13.10
2016,06,16,10,33,13.00
2016,06,16,10,34,13.00
2016,06,16,10,35,12.90
2016,06,16,10,36,12.80
2016,06,16,10,37,12.70
2016,06,16,10,38,12.60
2016,06,16,10,39,12.60
2016,06,16,10,40,12.50
2016,06,16,10,41,12.50
2016,06,16,10,42,12.60
2016,06,16,10,43,12.60
2016,06,16,10,44,12.60
2016,06,16,10,45,12.70
2016,06,16,10,46,12.70
2016,06,16,10,47,12.80
2016,06,16,10,48,12.80
2016,06,16,10,49,12.90
2016,06,16,10,50,12.90
2016,06,16,10,51,12.90
2016,06,16,10,52,12.90
2016,06,16,10,53,13.00
2016,06,16,10,54,13.00
2016,06,16,10,55,13.00
2016,06,16,10,56,13.00
2016,06,16,10,57,13.00
2016,06,16,10,58,13.00
2016,06,16,10,59,13.10
2016,06,16,11,00,13.10
2016,06,16,11,01,13.00
2016,06,16,11,02,13.00
2016,06,16,11,03,12.90
2016,06,16,11,04,12.90
2016,06,16,11,05,12.80
2016,06,16,11,06,12.80
2016,06,16,11,07,12.70
2016,06,16,11,08,12.70
2016,06,16,11,09,12.70
2016,06,16,11,10,12.60
2016,06,16,11,11,12.60
2016,06,16,11,12,12.60
2016,06,16,11,13,12.50
2016,06,16,11,14,12.50
2016,06,16,11,15,12.50
2016,06,16,11,16,12.50
2016,06,16,11,17,12.40
2016,06,16,11,18,12.40
2016,06,16,11,19,12.30
2016,06,16,11,20,12.20
2016,06,16,11,21,12.10
2016,06,16,11,22,12.10
2016,06,16,11,23,12.00
2016,06,16,11,24,11.90
2016,06,16,11,25,11.80
2016,06,16,11,26,11.80
2016,06,16,11,27,11.80
2016,06,16,11,28,11.70
2016,06,16,11,29,11.70
2016,06,16,11,30,11.60
2016,06,16,11,31,11.60
2016,06,16,11,32,11.60
2016,06,16,11,33,11.60
2016,06,16,11,34,11.60
2016,06,16,11,35,11.60
2016,06,16,11,36,11.60
2016,06,16,11,37,11.60
2016,06,16,11,38,11.60
2016,06,16,11,39,11.50
2016,06,16,11,40,11.50
2016,06,16,11,41,11.50
2016,06,16,11,42,11.50
2016,06,16,11,43,11.40
2016,06,16,11,44,11.40
2016,06,16,11,45,11.40
2016,06,16,11,46,11.30
2016,06,16,11,47,11.30
2016,06,16,11,48,11.30
2016,06,16,11,49,11.30
2016,06,16,11,50,11.30
2016,06,16,11,51,11.30
2016,06,16,11,52,11.30
2016,06,16,11,53,11.30
2016,06,16,11,54,11.40
2016,06,16,11,55,11.40
2016,06,16,11,56,11.40
2016,06,16,11,57,11.40
2016,06,16,11,58,11.50
2016,06,16,11,59,11.50
2016,06,16,12,00,11.50
2016,06,16,12,01,11.60
2016,06,16,12,02,11.60
2016,06,16,12,03,11.60
2016,06,16,12,04,11.70
2016,06,16,12,05,11.70
2016,06,16,12,06,11.70
2016,06,16,12,07,11.80
2016,06,16,12,08,11.80
2016,06,16,12,09,11.90
2016,06,16,12,10,11.90
2016,06,16,12,11,12.00
2016,06,16,12,12,12.10
2016,06,16,12,13,12.10
2016,06,16,12,14,12.20
2016,06,16,12,15,12.20
2016,06,16,12,16,12.30
2016,06,16,12,17,12.40
2016,06,16,12,18,12.50
2016,06,16,12,19,12.70
2016,06,16,12,20,12.80
2016,06,16,12,21,12.90
2016,06,16,12,22,13.00
2016,06,16,12,23,13.10
2016,06,16,12,24,13.20
2016,06,16,12,25,13.30
2016,06,16,12,26,13.40
2016,06,16,12,27,13.50
2016,06,16,12,28,13.60
2016,06,16,12,29,13.70
2016,06,16,12,30,13.80
2016,06,16,12,31,13.90
2016,06,16,12,32,14.00
2016,06,16,12,33,14.10
2016,06,16,12,34,14.20
2016,06,16,12,35,14.20
2016,06,16,12,36,14.20
2016,06,16,12,37,14.20
2016,06,16,12,38,14.20
2016,06,16,12,39,14.30
2016,06,16,12,40,14.30
2016,06,16,12,41,14.30
2016,06,16,12,42,14.40
2016,06,16,12,43,14.40
2016,06,16,12,44,14.50
2016,06,16,12,45,14.50
2016,06,16,12,46,14.60
2016,06,16,12,47,14.70
2016,06,16,12,48,14.70
2016,06,16,12,49,14.80
2016,06,16,12,50,14.80
2016,06,16,12,51,15.00
2016,06,16,12,52,15.00
2016,06,16,12,53,15.00
2016,06,16,12,54,15.00
2016,06,16,12,55,15.20
2016,06,16,12,56,15.30
2016,06,16,12,57,15.40
2016,06,16,12,58,15.50
2016,06,16,12,59,15.50
2016,06,16,13,00,15.60
2016,06,16,13,01,15.60
2016,06,16,13,02,15.50
2016,06,16,13,03,15.50
2016,06,16,13,04,15.40
2016,06,16,13,05,15.30
2016,06,16,13,06,15.20
2016,06,16,13,07,15.20
2016,06,16,13,08,15.20
2016,06,16,13,09,15.20
2016,06,16,13,10,15.20
2016,06,16,13,11,15.30
2016,06,16,13,12,15.30
2016,06,16,13,13,15.40
2016,06,16,13,14,15.50
2016,06,16,13,15,15.70
2016,06,16,13,16,15.70
2016,06,16,13,17,15.80
2016,06,16,13,18,15.90
2016,06,16,13,19,16.00
2016,06,16,13,20,16.00
2016,06,16,13,21,16.10
2016,06,16,13,22,16.10
2016,06,16,13,23,16.10
2016,06,16,13,24,16.10
2016,06,16,13,25,16.00
2016,06,16,13,26,16.00
2016,06,16,13,27,15.90
2016,06,16,13,28,15.80
2016,06,16,13,29,15.80
2016,06,16,13,30,15.70
2016,06,16,13,31,15.70
2016,06,16,13,32,15.60
2016,06,16,13,33,15.60
2016,06,16,13,34,15.60
2016,06,16,13,35,15.60
2016,06,16,13,36,15.60
2016,06,16,13,37,15.50
2016,06,16,13,38,15.50
2016,06,16,13,39,15.40
2016,06,16,13,40,15.30
2016,06,16,13,41,15.30
2016,06,16,13,42,15.30
2016,06,16,13,43,15.20
2016,06,16,13,44,15.20
2016,06,16,13,45,15.20
2016,06,16,13,46,15.20
2016,06,16,13,47,15.20
2016,06,16,13,48,15.20
2016,06,16,13,49,15.20
2016,06,16,13,50,15.30
2016,06,16,13,51,15.30
2016,06,16,13,52,15.50
2016,06,16,13,53,15.50
2016,06,16,13,54,15.60
2016,06,16,13,55,15.70
2016,06,16,13,56,15.80
2016,06,16,13,57,15.80
2016,06,16,13,58,15.90
2016,06,16,13,59,15.90
2016,06,16,14,00,15.80
2016,06,16,14,01,15.80
2016,06,16,14,02,15.80
2016,06,16,14,03,15.70
2016,06,16,14,04,15.70
2016,06,16,14,05,15.60
2016,06,16,14,06,15.60
2016,06,16,14,07,15.50
2016,06,16,14,08,15.50
2016,06,16,14,09,15.50
2016,06,16,14,10,15.50
2016,06,16,14,11,15.50
2016,06,16,14,12,15.50
2016,06,16,14,13,15.50
2016,06,16,14,14,15.50
2016,06,16,14,15,15.50
2016,06,16,14,16,15.50
2016,06,16,14,17,15.50
2016,06,16,14,18,15.50
2016,06,16,14,19,15.50
2016,06,16,14,20,15.50
2016,06,16,14,21,15.40
2016,06,16,14,22,15.30
2016,06,16,14,23,15.30
2016,06,16,14,24,15.20
2016,06,16,14,25,15.20
2016,06,16,14,26,15.10
2016,06,16,14,27,15.20
2016,06,16,14,28,15.20
2016,06,16,14,29,15.20
2016,06,16,14,30,15.20
2016,06,16,14,31,15.30
2016,06,16,14,32,15.30
2016,06,16,14,33,15.40
2016,06,16,14,34,15.50
2016,06,16,14,35,15.50
2016,06,16,14,36,15.60
2016,06,16,14,37,15.60
2016,06,16,14,38,15.70
2016,06,16,14,39,15.60
2016,06,16,14,40,15.60
2016,06,16,14,41,15.50
2016,06,16,14,42,15.50
2016,06,16,14,43,15.40
2016,06,16,14,44,15.40
2016,06,16,14,45,15.40
2016,06,16,14,46,15.40
2016,06,16,14,47,15.40
2016,06,16,14,48,15.30
2016,06,16,14,49,15.40
2016,06,16,14,50,15.40
2016,06,16,14,51,15.50
2016,06,16,14,52,15.50
2016,06,16,14,53,15.60
2016,06,16,14,54,15.70
2016,06,16,14,55,15.80
2016,06,16,14,56,15.90
2016,06,16,14,57,16.00
2016,06,16,14,58,16.10
2016,06,16,14,59,16.20
2016,06,16,15,00,16.40
2016,06,16,15,01,16.50
2016,06,16,15,02,16.60
2016,06,16,15,03,16.70
2016,06,16,15,04,16.60
2016,06,16,15,05,16.50
2016,06,16,15,06,16.50
2016,06,16,15,07,16.50
2016,06,16,15,08,16.50
2016,06,16,15,09,16.60
2016,06,16,15,10,16.70
2016,06,16,15,11,16.70
2016,06,16,15,12,16.70
2016,06,16,15,13,16.70
2016,06,16,15,14,16.70
2016,06,16,15,15,16.70
2016,06,16,15,16,16.70
2016,06,16,15,17,16.70
2016,06,16,15,18,16.60
2016,06,16,15,19,16.60
2016,06,16,15,20,16.60
2016,06,16,15,21,16.60
2016,06,16,15,22,16.60
2016,06,16,15,23,16.60
2016,06,16,15,24,16.70
2016,06,16,15,25,16.70
2016,06,16,15,26,16.80
2016,06,16,15,27,16.90
2016,06,16,15,28,17.00
2016,06,16,15,29,17.00
2016,06,16,15,30,17.10
2016,06,16,15,31,17.20
2016,06,16,15,32,17.30
2016,06,16,15,33,17.30
2016,06,16,15,34,17.30
2016,06,16,15,35,17.30
2016,06,16,15,36,17.20
2016,06,16,15,37,17.20
2016,06,16,15,38,17.20
2016,06,16,15,39,17.10
2016,06,16,15,40,16.90
2016,06,16,15,41,16.80
2016,06,16,15,42,16.70
2016,06,16,15,43,16.60
2016,06,16,15,44,16.50
2016,06,16,15,45,16.40
2016,06,16,15,46,16.30
2016,06,16,15,47,16.10
2016,06,16,15,48,16.00
2016,06,16,15,49,15.80
2016,06,16,15,50,15.60
2016,06,16,15,51,15.40
2016,06,16,15,52,15.30
2016,06,16,15,53,15.20
2016,06,16,15,54,15.00
2016,06,16,15,55,15.00
2016,06,16,15,56,15.00
2016,06,16,15,57,15.00
2016,06,16,15,58,15.00
2016,06,16,15,59,15.10
2016,06,16,16,00,15.20
2016,06,16,16,01,15.30
2016,06,16,16,02,15.40
2016,06,16,16,03,15.40
2016,06,16,16,04,15.50
2016,06,16,16,05,15.60
2016,06,16,16,06,15.70
2016,06,16,16,07,15.80
2016,06,16,16,08,15.80
2016,06,16,16,09,15.90
2016,06,16,16,10,15.90
2016,06,16,16,11,16.00
2016,06,16,16,12,16.10
2016,06,16,16,13,16.10
2016,06,16,16,14,16.10
2016,06,16,16,15,16.10
2016,06,16,16,16,16.10
2016,06,16,16,17,16.10
2016,06,16,16,18,16.10
2016,06,16,16,19,16.20
2016,06,16,16,20,16.20
2016,06,16,16,21,16.10
2016,06,16,16,22,16.10
2016,06,16,16,23,16.10
2016,06,16,16,24,16.10
2016,06,16,16,25,16.10
2016,06,16,16,26,16.10
2016,06,16,16,27,16.10
2016,06,16,16,28,16.10
2016,06,16,16,29,16.10
2016,06,16,16,30,16.00
2016,06,16,16,31,15.90
2016,06,16,16,32,15.90
2016,06,16,16,33,15.90
2016,06,16,16,34,15.90
2016,06,16,16,35,15.90
2016,06,16,16,36,15.90
2016,06,16,16,37,15.80
2016,06,16,16,38,15.80
2016,06,16,16,39,15.80
2016,06,16,16,40,15.80
2016,06,16,16,41,15.70
2016,06,16,16,42,15.70
2016,06,16,16,43,15.70
2016,06,16,16,44,15.70
2016,06,16,16,45,15.70
2016,06,16,16,46,15.70
2016,06,16,16,47,15.70
2016,06,16,16,48,15.70
2016,06,16,16,49,15.70
2016,06,16,16,50,15.70
2016,06,16,16,51,15.70
2016,06,16,16,52,15.70
2016,06,16,16,53,15.70
2016,06,16,16,54,15.70
2016,06,16,16,55,15.80
2016,06,16,16,56,15.80
2016,06,16,16,57,15.80
2016,06,16,16,58,15.90
2016,06,16,16,59,15.90
2016,06,16,17,00,16.00
2016,06,16,17,01,16.00
2016,06,16,17,02,16.10
2016,06,16,17,03,16.20
2016,06,16,17,04,16.30
2016,06,16,17,05,16.30
2016,06,16,17,06,16.40
2016,06,16,17,07,16.50
2016,06,16,17,08,16.50
2016,06,16,17,09,16.60
2016,06,16,17,10,16.70
2016,06,16,17,11,16.70
2016,06,16,17,12,16.80
2016,06,16,17,13,16.80
2016,06,16,17,14,16.80
2016,06,16,17,15,16.80
2016,06,16,17,16,16.80
2016,06,16,17,17,16.80
2016,06,16,17,18,16.80
2016,06,16,17,19,16.70
2016,06,16,17,20,16.70
2016,06,16,17,21,16.70
2016,06,16,17,22,16.70
2016,06,16,17,23,16.70
2016,06,16,17,24,16.80
2016,06,16,17,25,16.80
2016,06,16,17,26,16.80
2016,06,16,17,27,16.90
2016,06,16,17,28,16.90
2016,06,16,17,29,17.00
2016,06,16,17,30,17.00
2016,06,16,17,31,17.10
2016,06,16,17,32,17.10
2016,06,16,17,33,17.10
2016,06,16,17,34,17.10
2016,06,16,17,35,17.10
2016,06,16,17,36,17.10
2016,06,16,17,37,17.10
2016,06,16,17,38,17.00
2016,06,16,17,39,17.00
2016,06,16,17,40,16.90